Time,TemperatureF,DewpointF,PressureIn,WindDirection,WindDirectionDegrees,WindSpeedMPH,WindSpeedGustMPH,Humidity,HourlyPrecipIn,Conditions,Clouds,dailyrainin,SolarRadiationWatts/m^2,SoftwareType,DateUTC
2013-05-26 00:01:00,54.0,33.0,-100.00,NNW,344,9.0,14.0,44,0.00,,,0.00,0.000000,,2013-05-26 06:01:00,
2013-05-26 00:22:00,53.0,35.0,-100.00,ESE,109,1.0,13.0,51,0.00,,,0.00,0.000000,,2013-05-26 06:22:00,
2013-05-26 00:32:00,53.0,35.0,-100.00,ESE,109,1.0,13.0,51,0.00,,,0.00,0.000000,,2013-05-26 06:32:00,
2013-05-26 00:42:00,53.0,35.0,-100.00,ESE,109,1.0,13.0,51,0.00,,,0.00,0.000000,,2013-05-26 06:42:00,
2013-05-26 00:52:00,53.0,35.0,-100.00,ESE,109,1.0,13.0,51,0.00,,,0.00,0.000000,,2013-05-26 06:52:00,
2013-05-26 01:01:00,53.0,35.0,-100.00,ESE,109,1.0,13.0,51,0.00,,,0.00,0.000000,,2013-05-26 07:01:00,
2013-05-26 01:22:00,51.0,34.0,-100.00,NW,306,4.0,8.0,51,0.00,,,0.00,0.000000,,2013-05-26 07:22:00,
2013-05-26 01:32:00,51.0,34.0,-100.00,NW,306,4.0,8.0,51,0.00,,,0.00,0.000000,,2013-05-26 07:32:00,
2013-05-26 01:42:00,51.0,34.0,-100.00,NW,306,4.0,8.0,51,0.00,,,0.00,0.000000,,2013-05-26 07:42:00,
2013-05-26 01:52:00,51.0,34.0,-100.00,NW,306,4.0,8.0,51,0.00,,,0.00,0.000000,,2013-05-26 07:52:00,
2013-05-26 02:01:00,51.0,34.0,-100.00,NW,306,4.0,8.0,51,0.00,,,0.00,0.000000,,2013-05-26 08:01:00,
2013-05-26 02:22:00,49.0,34.0,-100.00,West,266,3.0,11.0,56,0.00,,,0.00,0.000000,,2013-05-26 08:22:00,
2013-05-26 02:32:00,49.0,34.0,-100.00,West,266,3.0,11.0,56,0.00,,,0.00,0.000000,,2013-05-26 08:32:00,
2013-05-26 02:42:00,49.0,34.0,-100.00,West,266,3.0,11.0,56,0.00,,,0.00,0.000000,,2013-05-26 08:42:00,
2013-05-26 02:53:00,49.0,34.0,-100.00,West,266,3.0,11.0,56,0.00,,,0.00,0.000000,,2013-05-26 08:53:00,
2013-05-26 03:01:00,49.0,34.0,-100.00,West,266,3.0,11.0,56,0.00,,,0.00,0.000000,,2013-05-26 09:01:00,
2013-05-26 03:22:00,49.0,37.0,-100.00,SE,136,4.0,9.0,63,0.00,,,0.00,0.000000,,2013-05-26 09:22:00,
2013-05-26 03:33:00,49.0,37.0,-100.00,SE,136,4.0,9.0,63,0.00,,,0.00,0.000000,,2013-05-26 09:33:00,
2013-05-26 04:23:00,45.0,38.0,-100.00,SW,228,5.0,9.0,75,-99.99,,,0.00,0.000000,,2013-05-26 10:23:00,
2013-05-26 04:33:00,45.0,38.0,-100.00,SW,228,5.0,9.0,75,-99.99,,,0.00,0.000000,,2013-05-26 10:33:00,
2013-05-26 04:42:00,45.0,38.0,-100.00,SW,228,5.0,9.0,75,-99.99,,,0.00,0.000000,,2013-05-26 10:42:00,
2013-05-26 04:52:00,45.0,38.0,-100.00,SW,228,5.0,9.0,75,-99.99,,,0.00,0.000000,,2013-05-26 10:52:00,
2013-05-26 05:02:00,45.0,38.0,-100.00,SW,228,5.0,9.0,75,-99.99,,,0.00,0.000000,,2013-05-26 11:02:00,
2013-05-26 05:22:00,44.0,36.0,-100.00,SSE,154,2.0,8.0,73,0.00,,,0.00,0.000000,,2013-05-26 11:22:00,
2013-05-26 05:32:00,44.0,36.0,-100.00,SSE,154,2.0,8.0,73,0.00,,,0.00,0.000000,,2013-05-26 11:32:00,
2013-05-26 05:42:00,44.0,36.0,-100.00,SSE,154,2.0,8.0,73,0.00,,,0.00,0.000000,,2013-05-26 11:42:00,
2013-05-26 05:52:00,44.0,36.0,-100.00,SSE,154,2.0,8.0,73,0.00,,,0.00,0.000000,,2013-05-26 11:52:00,
2013-05-26 06:01:00,44.0,36.0,-100.00,SSE,154,2.0,8.0,73,0.00,,,0.00,0.000000,,2013-05-26 12:01:00,
2013-05-26 06:22:00,43.0,35.0,-100.00,SW,235,3.0,8.0,74,0.00,,,0.00,3.000000,,2013-05-26 12:22:00,
2013-05-26 06:32:00,43.0,35.0,-100.00,SW,235,3.0,8.0,74,0.00,,,0.00,3.000000,,2013-05-26 12:32:00,
2013-05-26 06:42:00,43.0,35.0,-100.00,SW,235,3.0,8.0,74,0.00,,,0.00,3.000000,,2013-05-26 12:42:00,
2013-05-26 06:52:00,43.0,35.0,-100.00,SW,235,3.0,8.0,74,0.00,,,0.00,3.000000,,2013-05-26 12:52:00,
2013-05-26 07:02:00,43.0,35.0,-100.00,SW,235,3.0,8.0,74,0.00,,,0.00,3.000000,,2013-05-26 13:02:00,
2013-05-26 07:22:00,48.0,37.0,-100.00,SE,138,3.0,5.0,66,0.00,,,0.00,90.000000,,2013-05-26 13:22:00,
2013-05-26 07:32:00,48.0,37.0,-100.00,SE,138,3.0,5.0,66,0.00,,,0.00,90.000000,,2013-05-26 13:32:00,
2013-05-26 08:22:00,51.0,39.0,-100.00,East,79,2.0,6.0,64,0.00,,,-99.99,240.000000,,2013-05-26 14:22:00,
2013-05-26 09:22:00,58.0,39.0,-100.00,East,92,0.0,8.0,49,-99.99,,,0.00,401.000000,,2013-05-26 15:22:00,
2013-05-26 09:33:00,58.0,39.0,-100.00,East,92,0.0,8.0,49,-99.99,,,0.00,401.000000,,2013-05-26 15:33:00,
2013-05-26 10:23:00,59.0,36.0,-100.00,East,94,3.0,6.0,42,-99.99,,,0.00,571.000000,,2013-05-26 16:23:00,
2013-05-26 10:33:00,59.0,36.0,-100.00,East,94,3.0,6.0,42,-99.99,,,0.00,571.000000,,2013-05-26 16:33:00,
2013-05-26 10:42:00,59.0,36.0,-100.00,East,94,3.0,6.0,42,-99.99,,,0.00,571.000000,,2013-05-26 16:42:00,
2013-05-26 10:53:00,59.0,36.0,-100.00,East,94,3.0,6.0,42,-99.99,,,0.00,571.000000,,2013-05-26 16:53:00,
2013-05-26 11:02:00,59.0,36.0,-100.00,East,94,3.0,6.0,42,-99.99,,,0.00,571.000000,,2013-05-26 17:02:00,
2013-05-26 11:23:00,63.0,38.0,-100.00,ESE,106,4.0,8.0,39,0.00,,,0.00,718.000000,,2013-05-26 17:23:00,
2013-05-26 11:32:00,63.0,38.0,-100.00,ESE,106,4.0,8.0,39,0.00,,,0.00,718.000000,,2013-05-26 17:32:00,
2013-05-26 11:42:00,63.0,38.0,-100.00,ESE,106,4.0,8.0,39,0.00,,,0.00,718.000000,,2013-05-26 17:42:00,
2013-05-26 11:52:00,63.0,38.0,-100.00,ESE,106,4.0,8.0,39,0.00,,,0.00,718.000000,,2013-05-26 17:52:00,
2013-05-26 12:01:00,63.0,38.0,-100.00,ESE,106,4.0,8.0,39,0.00,,,0.00,718.000000,,2013-05-26 18:01:00,
2013-05-26 12:22:00,67.0,39.0,-100.00,SSE,156,3.0,11.0,36,0.00,,,0.00,898.000000,,2013-05-26 18:22:00,
2013-05-26 12:32:00,67.0,39.0,-100.00,SSE,156,3.0,11.0,36,0.00,,,0.00,898.000000,,2013-05-26 18:32:00,
2013-05-26 12:42:00,67.0,39.0,-100.00,SSE,156,3.0,11.0,36,0.00,,,0.00,898.000000,,2013-05-26 18:42:00,
2013-05-26 12:52:00,67.0,39.0,-100.00,SSE,156,3.0,11.0,36,0.00,,,0.00,898.000000,,2013-05-26 18:52:00,
2013-05-26 13:01:00,67.0,39.0,-100.00,SSE,156,3.0,11.0,36,0.00,,,0.00,898.000000,,2013-05-26 19:01:00,
2013-05-26 13:22:00,68.0,38.0,-100.00,SE,131,7.0,12.0,33,0.00,,,0.00,1010.000000,,2013-05-26 19:22:00,
2013-05-26 13:32:00,68.0,38.0,-100.00,SE,131,7.0,12.0,33,0.00,,,0.00,1010.000000,,2013-05-26 19:32:00,
2013-05-26 13:42:00,68.0,38.0,-100.00,SE,131,7.0,12.0,33,0.00,,,0.00,1010.000000,,2013-05-26 19:42:00,
2013-05-26 13:52:00,68.0,38.0,-100.00,SE,131,7.0,12.0,33,0.00,,,0.00,1010.000000,,2013-05-26 19:52:00,
2013-05-26 14:01:00,68.0,38.0,-100.00,SE,131,7.0,12.0,33,0.00,,,0.00,1010.000000,,2013-05-26 20:01:00,
2013-05-26 14:22:00,70.0,38.0,-100.00,South,178,8.0,14.0,31,0.00,,,0.00,799.000000,,2013-05-26 20:22:00,
2013-05-26 14:32:00,70.0,38.0,-100.00,South,178,8.0,14.0,31,0.00,,,0.00,799.000000,,2013-05-26 20:32:00,
2013-05-26 14:42:00,70.0,38.0,-100.00,South,178,8.0,14.0,31,0.00,,,0.00,799.000000,,2013-05-26 20:42:00,
2013-05-26 14:52:00,70.0,38.0,-100.00,South,178,8.0,14.0,31,0.00,,,0.00,799.000000,,2013-05-26 20:52:00,
2013-05-26 15:01:00,70.0,38.0,-100.00,South,178,8.0,14.0,31,0.00,,,0.00,799.000000,,2013-05-26 21:01:00,
2013-05-26 15:22:00,68.0,36.0,-100.00,SW,214,10.0,17.0,31,0.00,,,0.00,695.000000,,2013-05-26 21:22:00,
2013-05-26 15:33:00,68.0,36.0,-100.00,SW,214,10.0,17.0,31,0.00,,,0.00,695.000000,,2013-05-26 21:33:00,
2013-05-26 15:43:00,68.0,36.0,-100.00,SW,214,10.0,17.0,31,0.00,,,0.00,695.000000,,2013-05-26 21:43:00,
2013-05-26 15:53:00,68.0,36.0,-100.00,SW,214,10.0,17.0,31,0.00,,,0.00,695.000000,,2013-05-26 21:53:00,
2013-05-26 16:02:00,68.0,36.0,-100.00,SW,214,10.0,17.0,31,0.00,,,0.00,695.000000,,2013-05-26 22:02:00,
2013-05-26 16:23:00,67.0,35.0,-100.00,SW,214,8.0,17.0,30,0.00,,,0.00,489.000000,,2013-05-26 22:23:00,
2013-05-26 16:33:00,67.0,35.0,-100.00,SW,214,8.0,17.0,30,0.00,,,0.00,489.000000,,2013-05-26 22:33:00,
2013-05-26 16:42:00,67.0,35.0,-100.00,SW,214,8.0,17.0,30,0.00,,,0.00,489.000000,,2013-05-26 22:42:00,
2013-05-26 16:53:00,67.0,35.0,-100.00,SW,214,8.0,17.0,30,0.00,,,0.00,489.000000,,2013-05-26 22:53:00,
2013-05-26 17:02:00,67.0,35.0,-100.00,SW,214,8.0,17.0,30,0.00,,,0.00,489.000000,,2013-05-26 23:02:00,
2013-05-26 17:22:00,66.0,32.0,-100.00,SW,217,6.0,15.0,28,0.00,,,0.00,337.000000,,2013-05-26 23:22:00,
2013-05-26 17:32:00,66.0,32.0,-100.00,SW,217,6.0,15.0,28,0.00,,,0.00,337.000000,,2013-05-26 23:32:00,
2013-05-26 18:22:00,64.0,39.0,-100.00,NE,51,6.0,19.0,39,0.00,,,0.00,141.000000,,2013-05-27 00:22:00,
2013-05-26 18:32:00,64.0,39.0,-100.00,NE,51,6.0,19.0,39,0.00,,,0.00,141.000000,,2013-05-27 00:32:00,
2013-05-26 18:42:00,64.0,39.0,-100.00,NE,51,6.0,19.0,39,0.00,,,0.00,141.000000,,2013-05-27 00:42:00,
2013-05-26 18:52:00,64.0,39.0,-100.00,NE,51,6.0,19.0,39,0.00,,,0.00,141.000000,,2013-05-27 00:52:00,
2013-05-26 19:01:00,64.0,39.0,-100.00,NE,51,6.0,19.0,39,0.00,,,0.00,141.000000,,2013-05-27 01:01:00,
2013-05-26 19:22:00,63.0,38.0,-100.00,NE,34,7.0,12.0,39,0.00,,,0.00,188.000000,,2013-05-27 01:22:00,
2013-05-26 19:32:00,63.0,38.0,-100.00,NE,34,7.0,12.0,39,0.00,,,0.00,188.000000,,2013-05-27 01:32:00,
2013-05-26 19:42:00,63.0,38.0,-100.00,NE,34,7.0,12.0,39,0.00,,,0.00,188.000000,,2013-05-27 01:42:00,
2013-05-26 19:52:00,63.0,38.0,-100.00,NE,34,7.0,12.0,39,0.00,,,0.00,188.000000,,2013-05-27 01:52:00,
2013-05-26 20:01:00,63.0,38.0,-100.00,NE,34,7.0,12.0,39,0.00,,,0.00,188.000000,,2013-05-27 02:01:00,
2013-05-26 20:22:00,59.0,38.0,-100.00,NW,321,3.0,14.0,45,0.00,,,0.00,66.000000,,2013-05-27 02:22:00,
2013-05-26 20:32:00,59.0,38.0,-100.00,NW,321,3.0,14.0,45,0.00,,,0.00,66.000000,,2013-05-27 02:32:00,
2013-05-26 20:42:00,59.0,38.0,-100.00,NW,321,3.0,14.0,45,0.00,,,0.00,66.000000,,2013-05-27 02:42:00,
2013-05-26 20:52:00,59.0,38.0,-100.00,NW,321,3.0,14.0,45,0.00,,,0.00,66.000000,,2013-05-27 02:52:00,
2013-05-26 21:02:00,59.0,38.0,-100.00,NW,321,3.0,14.0,45,0.00,,,0.00,66.000000,,2013-05-27 03:02:00,
2013-05-26 21:21:00,47.0,43.0,-100.00,South,191,4.0,49.0,87,0.09,,,0.09,0.000000,,2013-05-27 03:21:00,
2013-05-26 21:33:00,47.0,43.0,-100.00,South,191,4.0,49.0,87,0.09,,,0.09,0.000000,,2013-05-27 03:33:00,
2013-05-26 21:43:00,47.0,43.0,-100.00,South,191,4.0,49.0,87,0.09,,,0.09,0.000000,,2013-05-27 03:43:00,
2013-05-26 21:53:00,47.0,43.0,-100.00,South,191,4.0,49.0,87,0.09,,,0.09,0.000000,,2013-05-27 03:53:00,
2013-05-26 22:02:00,47.0,43.0,-100.00,South,191,4.0,49.0,87,0.09,,,0.09,0.000000,,2013-05-27 04:02:00,
2013-05-26 22:23:00,45.0,44.0,-100.00,North,10,8.0,51.0,98,0.00,,,0.09,0.000000,,2013-05-27 04:23:00,
2013-05-26 22:33:00,45.0,44.0,-100.00,North,10,8.0,51.0,98,0.00,,,0.09,0.000000,,2013-05-27 04:33:00,
2013-05-26 22:43:00,45.0,44.0,-100.00,North,10,8.0,51.0,98,0.00,,,0.09,0.000000,,2013-05-27 04:43:00,
2013-05-26 22:52:00,45.0,44.0,-100.00,North,10,8.0,51.0,98,0.00,,,0.09,0.000000,,2013-05-27 04:52:00,
2013-05-26 23:02:00,45.0,44.0,-100.00,North,10,8.0,51.0,98,0.00,,,0.09,0.000000,,2013-05-27 05:02:00,
2013-05-26 23:22:00,46.0,45.0,-100.00,SE,135,4.0,26.0,98,0.00,,,0.09,0.000000,,2013-05-27 05:22:00,
2013-05-26 23:32:00,46.0,45.0,-100.00,SE,135,4.0,26.0,98,0.00,,,0.09,0.000000,,2013-05-27 05:32:00,
2013-05-26 23:42:00,46.0,45.0,-100.00,SE,135,4.0,26.0,98,0.00,,,0.09,0.000000,,2013-05-27 05:42:00,
2013-05-26 23:52:00,46.0,45.0,-100.00,SE,135,4.0,26.0,98,0.00,,,0.09,0.000000,,2013-05-27 05:52:00,